Weather History for KBEH - December, 2012

Change the Weather History Date:

Monday, December 3, 2012

  Actual Average Record
Temperature  
Mean Temperature 52 °F -  
Max Temperature 66 °F 39 °F 67 °F (1982)
Min Temperature 37 °F 25 °F -2 °F (1976)
Degree Days  
Heating Degree Days 14    
Growing Degree Days 2 (Base 50)    
Moisture  
Dew Point 54 °F    
Average Humidity 94    
Maximum Humidity 100    
Minimum Humidity 73    
Precipitation  
Precipitation 0.00 in - - ()
Sea Level Pressure  
Sea Level Pressure 29.97 in    
Wind  
Wind Speed 7 mph (SSE)    
Max Wind Speed 18 mph    
Max Gust Speed 29 mph    
Visibility 3 miles    
Events Fog    
Averages and records for this station are not official NWS values.
T = Trace of Precipitation, MM = Missing Value Source: NWS Daily Summary

Daily Weather History Graph

Daily Weather History Graph

Search for Another Location

Airport or City:

Trip Planner

Search our weather history database for the weather conditions in past years. The results will help you decide how hot, cold, wet, or windy it might be!

Date:

Astronomy

Dec. 03, 2012 Rise Set
Actual Time 7:57 AM EST 5:14 PM EST
Civil Twilight 7:25 AM EST 5:45 PM EST
Nautical Twilight 6:50 AM EST 6:20 PM EST
Astronomical Twilight 6:17 AM EST 6:54 PM EST
Moon 10:03 PM EST (12/3) 11:17 AM EST (12/3)
Length of Visible Light 10h 19m
Length of Day
9h 17m
Waning Gibbous, 78% of the Moon is Illuminated
Dec 3
Waning Gibbous
Dec 6
Last Quarter
Dec 13
New
Dec 20
First Quarter
Dec 28
Full

Hourly Weather History & Observations

Time (EST) Temp. Windchill Dew Point Humidity Pressure Visibility Wind Dir Wind Speed Gust Speed Precip Events Conditions
12:01 AM 37.4 °F 34.9 °F 37.4 °F 100% 30.05 in 0.2 mi SE 3.5 mph - N/A Fog Fog
12:36 AM 37.4 °F 34.9 °F 37.4 °F 100% 30.06 in 1.0 mi ENE 3.5 mph - N/A   Mist
12:40 AM 37.4 °F 34.9 °F 37.4 °F 100% 30.06 in 0.5 mi East 3.5 mph - N/A Fog Fog
12:53 AM 39.0 °F 35.7 °F 39.0 °F 100% 30.07 in 0.5 mi ESE 4.6 mph - N/A Fog Fog
1:01 AM 39.2 °F 35.0 °F 39.2 °F 100% 30.06 in 0.8 mi ESE 5.8 mph - N/A   Overcast
1:09 AM 42.8 °F 39.3 °F 42.8 °F 100% 30.06 in 1.2 mi ESE 5.8 mph - N/A   Overcast
1:17 AM 44.6 °F 41.4 °F 44.6 °F 100% 30.06 in 1.5 mi ESE 5.8 mph - N/A   Overcast
1:53 AM 45.0 °F 42.6 °F 44.1 °F 97% 30.06 in 1.5 mi ESE 4.6 mph - N/A   Overcast
2:29 AM 50.0 °F - 50.0 °F 100% 30.06 in 1.5 mi SE 3.5 mph - N/A   Overcast
2:34 AM 50.0 °F - 50.0 °F 100% 30.06 in 1.0 mi ESE 4.6 mph - N/A   Overcast
2:37 AM 50.0 °F - 50.0 °F 100% 30.06 in 0.5 mi SE 4.6 mph - N/A Fog Fog
2:53 AM 51.1 °F - 51.1 °F 100% 30.06 in 0.2 mi SE 4.6 mph - N/A Fog Fog
3:53 AM 52.0 °F - 52.0 °F 100% 30.06 in 0.2 mi SSE 5.8 mph - N/A Fog Fog
4:53 AM 52.0 °F - 52.0 °F 100% 30.04 in 0.2 mi SSE 6.9 mph - N/A Fog Fog
5:53 AM 53.1 °F - 53.1 °F 100% 30.04 in 0.2 mi SE 5.8 mph - N/A Fog Fog
6:53 AM 54.0 °F - 54.0 °F 100% 30.02 in 1.0 mi SE 9.2 mph - N/A   Overcast
7:32 AM 55.4 °F - 55.4 °F 100% 30.01 in 1.5 mi SE 9.2 mph - N/A   Overcast
7:53 AM 55.0 °F - 55.0 °F 100% 30.01 in 1.5 mi SE 6.9 mph - N/A   Overcast
8:18 AM 55.4 °F - 55.4 °F 100% 30.00 in 1.2 mi SSE 8.1 mph - N/A   Overcast
8:26 AM 55.4 °F - 55.4 °F 100% 30.00 in 1.5 mi SE 6.9 mph - N/A   Overcast
8:53 AM 57.0 °F - 57.0 °F 100% 30.01 in 1.5 mi SSE 10.4 mph - N/A   Overcast
9:09 AM 57.2 °F - 57.2 °F 100% 30.00 in 1.2 mi SE 10.4 mph - N/A   Overcast
9:37 AM 57.2 °F - 57.2 °F 100% 29.99 in 1.5 mi SSE 10.4 mph - N/A   Overcast
10:18 AM 59.0 °F - 57.2 °F 94% 29.98 in 2.0 mi SSE 10.4 mph - N/A   Overcast
10:53 AM 59.0 °F - 57.9 °F 96% 29.99 in 2.0 mi SSE 11.5 mph - N/A   Overcast
11:41 AM 60.8 °F - 59.0 °F 94% 29.96 in 3.0 mi South 9.2 mph - N/A   Overcast
11:53 AM 60.1 °F - 59.0 °F 96% 29.96 in 3.0 mi South 11.5 mph 20.7 mph N/A   Overcast
12:14 PM 60.8 °F - 59.0 °F 94% 29.94 in 2.5 mi South 10.4 mph - N/A   Overcast
12:29 PM 60.8 °F - 60.8 °F 100% 29.93 in 1.8 mi SSE 9.2 mph - N/A   Overcast
12:53 PM 61.0 °F - 60.1 °F 97% 29.92 in 1.5 mi South 10.4 mph - N/A   Overcast
1:31 PM 62.6 °F - 60.8 °F 94% 29.90 in 2.5 mi South 12.7 mph - N/A   Overcast
1:53 PM 63.0 °F - 61.0 °F 93% 29.90 in 3.0 mi South 9.2 mph - N/A   Overcast
2:05 PM 62.6 °F - 60.8 °F 94% 29.89 in 3.0 mi South 11.5 mph - N/A   Overcast
2:53 PM 64.0 °F - 61.0 °F 90% 29.87 in 4.0 mi South 10.4 mph - N/A   Overcast
3:53 PM 64.9 °F - 61.0 °F 87% 29.85 in 5.0 mi SSE 13.8 mph 23.0 mph N/A   Overcast
4:53 PM 64.0 °F - 60.1 °F 87% 29.84 in 5.0 mi South 16.1 mph 21.9 mph N/A   Mostly Cloudy
5:01 PM 64.4 °F - 60.8 °F 88% 29.83 in 5.0 mi SSE 12.7 mph 21.9 mph N/A   Scattered Clouds
5:53 PM 64.0 °F - 59.0 °F 84% 29.83 in 8.0 mi SSE 12.7 mph 21.9 mph N/A   Clear
6:53 PM 64.9 °F - 59.0 °F 81% 29.85 in 10.0 mi South 12.7 mph - N/A   Mostly Cloudy
7:53 PM 66.0 °F - 57.9 °F 75% 29.84 in 10.0 mi South 17.3 mph 23.0 mph N/A   Mostly Cloudy
8:53 PM 66.0 °F - 57.0 °F 73% 29.84 in 10.0 mi SSW 17.3 mph 28.8 mph N/A   Mostly Cloudy
9:53 PM 64.9 °F - 55.9 °F 73% 29.85 in 10.0 mi SSW 18.4 mph 27.6 mph N/A   Overcast
10:53 PM 64.0 °F - 55.9 °F 75% 29.85 in 10.0 mi SSW 17.3 mph 27.6 mph N/A   Overcast
11:53 PM 64.0 °F - 55.9 °F 75% 29.86 in 10.0 mi SSW 18.4 mph 26.5 mph N/A   Overcast